STARLINK-35949, 66630

Orbit data source: Space-Track

STARLINK-35949, 66630 is a payload satellite owned by SpaceX/Seattle (US) in LEO that was launched on Sun, 23 Nov 2025 UTC via an FALCON 9 launch vehicle from the Air Force Western Test Range (AFWTR). Payload-class satellites include a variety of spacecraft equipped with specific instruments for various scientific and technological missions. These include communications satellites like Starlink; space stations such as the ISS; scientific satellites like the Hubble; Earth observation satellites from companies like Planet Labs, Umbra, and HawkEye 360; GPS; miniature CubeSats for education and research; and military/defense satellites.

Loading next visibility...
Identifier
66630, 2025-271P
Orbit
LEO
Country
Flag of USUS
Related business
Manufacturer
SpaceX/Seattle
Mission
Operational Commercial Communications
Bus & Motor
STARLINK V2MO, Unknown motor
Mass
575 kg wet, ~530 kg dry
Launch date (UTC)
2025-11-23 (1 month ago)
Launch vehicle
FALCON 9
Launch site
Air Force Western Test Range (AFWTR)
Object type
Payload
Rocket body
Debris
Shape & HBR
Box + 2 Pan, 17.7 m
Radar Cross Section
36.964 m²

Expand to show TLE details & history
Last TLE update: 2 days ago

TLE from 2 days ago
0 STARLINK-35949
1 66630U 25271P   25353.88047524 -.00279700  00000-0 -56580-2 0  9997
2 66630  53.1593 153.0444 0003221  47.5604 312.5676 15.46903837  5319
Epoch: 2025-12-19T21:07Z
TLE epoch observation values (Epoch: 2025-12-19T21:07:53.060Z)
Latitude
-0.00003°
Longitude
107.35801°
Altitude
425.214 km
Speed
7.658 km/s
True Right ascension
10h 12m 10s
True Declination
0° 00' 00"
Sunlit
Object was in full shadow at epoch
Visualization orbit readout
Latitude
Unknown
Longitude
Unknown
Altitude
Unknown
Speed
Unknown
Apparent Right ascension
Unknown
Apparent Declination
Unknown
Sunlit
N/A
Visualization observer readout
Local Sidereal Time
15:47:53
Azimuth
Unknown
Elevation
Unknown
Doppler factor
Unknown
Orbital elements
Apogee altitude
428.24 km
Perigee altitude
423.856 km
Semi-major axis
6,804.185 km
Eccentricity
0.00032
Inclination
53.1593°
RAAN
153.0444°
Arg. of periapsis
47.5604°
True anomaly
312.54041°
Mean anomaly
312.5676°
Eccentric anomaly
312.55401°
Mean motion
3.86704 °/min
Orbital period
93.09 mins
BSTAR
-0.005658
Loading maneuver chart data...
Computing Atmospheric mass density...
Loading historical data...
Loading historical data...
Loading historical data...
Loading historical data...
Loading historical data...
Loading historical data...
Loading historical data...

Documentation

Showing up to 5 results
|